Location: Newport
(44.6370°N, 124.0520°W)
Time: 11:17:17
(UTC-08:00)

Vanguard 1 - Pass Details

Date: 25 July 2018
Orbit: 650 x 3833 km, 34.2° (Epoch: 16 December)

Event Time Altitude Azimuth Distance (km) Brightness Sun altitude
Rises 00:16:57 0° 251° (WSW) 4,111 13.2 -24.0°
Reaches altitude 10° 00:20:37 10° 240° (WSW) 2,739 12.2 -24.2°
Enters shadow 00:21:39 14° 235° (SW) 2,376 11.8 -24.2°
